Weather in Solotvin

Ukraine / Ivano-Frankovsk District     48°42′19″N   24°25′22″E
temp.,
°C
wind,
m/s
gust,
m/s
humid.,
%
clouds,
%
prec.,
mm/h
press.,
hPa
HPBL,
m
4 march, thu
thu423:00+2sw337634 0.0 102646
02:00+2sw238320 0.0 102450
05:00+2ese038426 0.0 102131
08:00+3wsw157960 0.0 1019176
11:00+10wsw4105250 0.0 1017744
14:00+12sw484944 0.0 1015910
17:00+9sw276244 0.0 1014313
20:00+5sw237862 0.0 101461
5 march, fri
fri523:00+5ssw1185100 0.4 101322
02:00+5sw1190100 1.1 101330
05:00+4wsw2389100 0.1 101169
08:00+4nne129699 0.3 1011147
11:00+1nw4797100 4.3 1013383
14:00+1nw4695100 5.9 1016452
17:00−1n4896100 2.1 1018581
20:00−1nw2689100 3.5 1021642
6 march, sat
sat623:00−4w2285100 0.0 102435
02:00−5w238366 0.0 102646
05:00−6wsw23820 0.0 102759
08:00−4w357824 0.0 1029263
11:000nw566963 0.2 10301143
14:00+1nw685975 0.6 10301638
17:000nw466468 0.1 10301090
20:00−4w347753 0.1 103294
7 march, sun
sun723:00−4sw23750 0.0 103261
02:00−5sw23760 0.0 103162
05:00−5sw23730 0.0 102969
08:00−4sw36710 0.0 1028166
11:00+2wsw27530 0.0 1026786
14:00+4wsw36491 0.0 1022997
17:00+2sw24620 0.0 1020160
20:00−3sw24760 0.0 102153
8 march, mon
mon823:00−3sw36750 0.0 1021126
02:00−3wsw237620 0.0 102091
05:00−3sw357665 0.0 101896
08:00−2wsw247348 0.0 1019135
11:00+2nw475794 0.0 10191395
14:00+2nw576797 0.1 1018969
17:000nnw4791100 0.3 1019545
20:00−2wnw4983100 1.1 1022478